Location: Newark
(39.0622°N, 106.5590°E)
Time: 14:05:47
(UTC+00:00)

Tiros 1 despin weight - Visible Passes

Search period start: 29 January 2020 00:00
Search period end: 08 February 2020 00:00
Orbit: 594 x 642 km, 48.2° (Epoch: 28 January)

Date Brightness Start Highest point End Pass type
(mag) Time Alt. Az. Time Alt. Az. Time Alt. Az.
02 Feb ? 22:56:35 10° SSE 22:58:43 13° SE 23:00:52 10° E visible
03 Feb ? 23:11:13 10° SSW 23:14:56 27° SE 23:18:42 10° ENE visible
04 Feb ? 23:27:00 10° SW 23:31:17 53° SE 23:35:38 10° ENE visible
05 Feb ? 22:03:41 10° S 22:06:41 18° SE 22:09:43 10° E visible
06 Feb ? 22:18:56 10° SSW 22:22:58 36° SE 22:27:01 10° ENE visible
07 Feb ? 20:58:38 12° SE 20:58:38 12° SE 21:00:03 10° ESE visible
07 Feb ? 22:35:44 15° SW 22:39:23 71° SE 22:43:48 10° ENE visible
